| time (UTC) | temp F | wind direction | speed MPH | gust MPH | rain 1hr in | rain 24hr in | rain mn in | humidity % | barometer mb |
| 20260505055737 | 63 | 225 | 2.0 | 3.0 | 0.00 | 0.00 | 0.00 | 53 | 1010.6 |
| 20260505054717 | 63 | 203 | 1.0 | 3.0 | 0.00 | 0.00 | 0.00 | 55 | 1010.6 |
| 20260505053737 | 62 | 0.0 | 0.0 | 0.00 | 0.00 | 0.00 | 57 | 1010.5 | |
| 20260505052717 | 62 | 203 | 4.0 | 7.0 | 0.00 | 0.00 | 0.00 | 55 | 1010.3 |
| 20260505051717 | 64 | 180 | 5.0 | 8.0 | 0.00 | 0.00 | 0.00 | 53 | 1010.2 |
| 20260505050717 | 65 | 180 | 4.0 | 8.0 | 0.00 | 0.00 | 0.00 | 52 | 1010.0 |
| 20260505041717 | 63 | 203 | 2.0 | 6.0 | 0.00 | 0.00 | 0.00 | 60 | 1009.4 |
| 20260505040717 | 63 | 203 | 3.0 | 6.0 | 0.00 | 0.00 | 0.00 | 60 | 1009.4 |
| 20260505035717 | 62 | 270 | 2.0 | 5.0 | 0.00 | 0.00 | 0.00 | 61 | 1009.3 |
| 20260505034717 | 63 | 248 | 1.0 | 2.0 | 0.00 | 0.00 | 0.00 | 59 | 1009.3 |
| 20260505033717 | 64 | 203 | 2.0 | 4.0 | 0.00 | 0.00 | 0.00 | 61 | 1009.1 |
| 20260505032737 | 63 | 270 | 3.0 | 4.0 | 0.00 | 0.00 | 0.00 | 61 | 1009.0 |
| 20260505031717 | 63 | 203 | 3.0 | 4.0 | 0.00 | 0.00 | 0.00 | 61 | 1009.0 |
| 20260505030817 | 63 | 135 | 1.0 | 3.0 | 0.00 | 0.00 | 0.00 | 61 | 1009.0 |
| 20260505025717 | 63 | 158 | 2.0 | 4.0 | 0.00 | 0.00 | 0.00 | 60 | 1009.1 |
| 20260505024717 | 64 | 203 | 3.0 | 5.0 | 0.00 | 0.00 | 0.00 | 59 | 1009.1 |
| 20260505023717 | 65 | 225 | 3.0 | 6.0 | 0.00 | 0.00 | 0.00 | 58 | 1008.9 |
| 20260505022717 | 64 | 158 | 2.0 | 3.0 | 0.00 | 0.00 | 0.00 | 60 | 1009.0 |
| 20260505021717 | 62 | 158 | 1.0 | 2.0 | 0.00 | 0.00 | 0.00 | 63 | 1009.1 |
| 20260505020717 | 62 | 203 | 1.0 | 4.0 | 0.00 | 0.00 | 0.00 | 62 | 1009.4 |
| 20260505015717 | 63 | 248 | 2.0 | 3.0 | 0.00 | 0.00 | 0.00 | 62 | 1009.2 |
| 20260505014717 | 63 | 0.0 | 1.0 | 0.00 | 0.00 | 0.00 | 63 | 1009.2 | |
| 20260505013717 | 63 | 315 | 1.0 | 2.0 | 0.00 | 0.00 | 0.00 | 64 | 1009.0 |
| 20260505012717 | 62 | 0.0 | 1.0 | 0.00 | 0.00 | 0.00 | 64 | 1009.0 | |
| 20260505011717 | 61 | 0.0 | 0.0 | 0.00 | 0.00 | 0.00 | 64 | 1008.8 | |
| 20260505010737 | 62 | 270 | 1.0 | 3.0 | 0.00 | 0.00 | 0.00 | 66 | 1008.9 |
| 20260505005717 | 61 | 203 | 2.0 | 3.0 | 0.00 | 0.00 | 0.00 | 66 | 1008.9 |
| 20260505004717 | 61 | 248 | 1.0 | 2.0 | 0.00 | 0.00 | 0.00 | 67 | 1009.1 |
| 20260505003717 | 60 | 203 | 2.0 | 4.0 | 0.00 | 0.00 | 0.00 | 68 | 1008.9 |
| 20260505002717 | 60 | 225 | 3.0 | 4.0 | 0.00 | 0.00 | 0.00 | 70 | 1008.9 |
| 20260505001717 | 60 | 203 | 2.0 | 4.0 | 0.00 | 0.00 | 0.00 | 71 | 1008.8 |
| 20260505000717 | 59 | 180 | 2.0 | 4.0 | 0.00 | 0.00 | 0.00 | 72 | 1008.7 |
| 20260504235717 | 59 | 315 | 1.0 | 3.0 | 0.00 | 0.00 | 0.00 | 73 | 1008.6 |
| 20260504234717 | 59 | 225 | 1.0 | 3.0 | 0.00 | 0.00 | 0.00 | 73 | 1008.6 |
| 20260504233717 | 59 | 203 | 2.0 | 4.0 | 0.00 | 0.00 | 0.00 | 73 | 1008.6 |
| 20260504232717 | 58 | 225 | 3.0 | 5.0 | 0.00 | 0.00 | 0.00 | 74 | 1008.5 |
| 20260504231737 | 58 | 90 | 2.0 | 3.0 | 0.00 | 0.00 | 0.00 | 77 | 1008.3 |
| 20260504230717 | 56 | 0.0 | 0.0 | 0.00 | 0.00 | 0.00 | 80 | 1008.3 | |
| 20260504225737 | 54 | 0.0 | 0.0 | 0.00 | 0.00 | 0.00 | 84 | 1008.2 | |
| 20260504224717 | 52 | 0.0 | 0.0 | 0.00 | 0.00 | 0.00 | 87 | 1008.1 | |
| 20260504223757 | 51 | 0.0 | 0.0 | 0.00 | 0.00 | 0.00 | 88 | 1008.1 | |
| 20260504222717 | 49 | 0.0 | 0.0 | 0.00 | 0.00 | 0.00 | 89 | 1008.0 | |
| 20260504221717 | 49 | 23 | 1.0 | 2.0 | 0.00 | 0.00 | 0.00 | 89 | 1007.9 |
| 20260504220717 | 48 | 0 | 1.0 | 3.0 | 0.00 | 0.00 | 0.00 | 88 | 1007.6 |
| 20260504215717 | 48 | 338 | 1.0 | 2.0 | 0.00 | 0.00 | 0.00 | 88 | 1007.4 |
| 20260504214717 | 48 | 0 | 1.0 | 2.0 | 0.00 | 0.00 | 0.00 | 88 | 1007.3 |
| 20260504213717 | 48 | 315 | 1.0 | 1.0 | 0.00 | 0.00 | 0.00 | 88 | 1006.9 |
| 20260504212717 | 49 | 0 | 1.0 | 1.0 | 0.00 | 0.00 | 0.00 | 87 | 1006.8 |
| 20260504211717 | 49 | 0.0 | 1.0 | 0.00 | 0.00 | 0.00 | 87 | 1006.7 | |
| 20260504210717 | 49 | 0.0 | 1.0 | 0.00 | 0.00 | 0.00 | 88 | 1006.5 | |
| 20260504205717 | 49 | 338 | 1.0 | 1.0 | 0.00 | 0.00 | 0.00 | 88 | 1006.4 |
| 20260504204717 | 48 | 0 | 1.0 | 1.0 | 0.00 | 0.00 | 0.00 | 88 | 1006.3 |
| 20260504203717 | 48 | 0.0 | 0.0 | 0.00 | 0.00 | 0.00 | 92 | 1006.2 | |
| 20260504202717 | 48 | 0.0 | 0.0 | 0.00 | 0.00 | 0.00 | 88 | 1005.9 | |
| 20260504201717 | 48 | 0.0 | 0.0 | 0.00 | 0.00 | 0.00 | 87 | 1005.7 | |
| 20260504200716 | 48 | 0.0 | 0.0 | 0.00 | 0.00 | 0.00 | 87 | 1005.6 | |
| 20260504195716 | 48 | 315 | 1.0 | 2.0 | 0.00 | 0.00 | 0.00 | 87 | 1005.6 |
| 20260504194737 | 49 | 0 | 1.0 | 2.0 | 0.00 | 0.00 | 0.00 | 87 | 1005.5 |
| 20260504193737 | 49 | 0 | 1.0 | 2.0 | 0.00 | 0.00 | 0.00 | 86 | 1005.4 |
| 20260504192716 | 49 | 0.0 | 1.0 | 0.00 | 0.00 | 0.00 | 86 | 1005.3 | |
| 20260504191717 | 49 | 0 | 1.0 | 2.0 | 0.00 | 0.00 | 0.00 | 86 | 1005.4 |
| 20260504190717 | 49 | 0.0 | 0.0 | 0.00 | 0.00 | 0.00 | 85 | 1005.3 | |
| 20260504185716 | 50 | 0.0 | 1.0 | 0.00 | 0.00 | 0.00 | 85 | 1005.1 | |
| 20260504184717 | 49 | 338 | 1.0 | 2.0 | 0.00 | 0.00 | 0.00 | 86 | 1005.1 |
| 20260504183717 | 50 | 23 | 1.0 | 2.0 | 0.00 | 0.00 | 0.00 | 85 | 1005.2 |
| 20260504182737 | 50 | 23 | 1.0 | 2.0 | 0.00 | 0.00 | 0.00 | 84 | 1005.2 |
| 20260504181717 | 51 | 0.0 | 0.0 | 0.00 | 0.00 | 0.00 | 83 | 1004.9 | |
| 20260504180717 | 51 | 0.0 | 0.0 | 0.00 | 0.00 | 0.00 | 84 | 1004.8 | |
| 20260504175737 | 51 | 0 | 1.0 | 2.0 | 0.00 | 0.00 | 0.00 | 84 | 1004.8 |
| 20260504174716 | 51 | 0 | 1.0 | 2.0 | 0.00 | 0.00 | 0.00 | 84 | 1004.5 |
| 20260504173716 | 51 | 0.0 | 0.0 | 0.00 | 0.00 | 0.00 | 83 | 1004.5 | |
| 20260504172716 | 51 | 0.0 | 1.0 | 0.00 | 0.00 | 0.00 | 82 | 1004.5 | |
| 20260504171716 | 52 | 23 | 1.0 | 2.0 | 0.00 | 0.00 | 0.00 | 82 | 1004.4 |
| 20260504170737 | 52 | 0.0 | 0.0 | 0.00 | 0.00 | 0.00 | 83 | 1004.4 | |
| 20260504150716 | 54 | 0 | 2.0 | 2.0 | 0.00 | 0.00 | 0.00 | 78 | 1004.9 |
| 20260504140717 | 55 | 45 | 2.0 | 2.0 | 0.00 | 0.00 | 0.00 | 77 | 1004.7 |
| 20260504130718 | 56 | 0.0 | 0.0 | 0.00 | 0.00 | 0.00 | 73 | 1005.2 | |
| 20260504110718 | 55 | 338 | 2.0 | 2.0 | 0.00 | 0.00 | 0.00 | 76 | 1005.2 |
| 20260504081718 | 57 | 45 | 1.0 | 2.0 | 0.00 | 0.01 | 0.00 | 73 | 1004.7 |
| 20260504080718 | 56 | 0.0 | 1.0 | 0.00 | 0.01 | 0.00 | 74 | 1004.5 |